Location: Bieg
(49.3499°N, 10.3835°E)
Time: 13:27:06
(UTC+00:00)

FENGYUN 3A - Pass Details

Date: 23 May 2024
Orbit: 821 x 835 km, 98.6° (Epoch: 24 June)

Event Time Altitude Azimuth Distance (km) Brightness Sun altitude
Rises 02:14:15 0° 12° (NNE) 3,373 8.0 -9.5°
Reaches altitude 10° 02:16:38 10° 9° (N) 2,434 7.1 -9.3°
Maximum altitude 02:21:57 64° 290° (WNW) 910 3.8 -8.7°
Drops below altitude 10° 02:27:14 10° 210° (SSW) 2,414 5.5 -8.1°
Enters shadow 02:27:30 - 209° (SSW) 2,521 5.6 -8.0°
